Powrót do katalogu

COSMOS 457

AktywnyMilitariaLEO
NORAD 5614·PAYLOAD·🇷🇺 Russia

Wystrzelony Nov 20, 1971 z Plesetsk Cosmodrome

Loading…

Następne Przeloty (najbliższe 24 godziny)

TLE

ŚwieżeSource: Space-Track

Epoka: Sep 14, 2026, 09:18 UTC

1 05614U 71099A   26257.38755525 -.00000334  00000-0 -82763-3 0  9995
2 05614  74.0326 236.4493 0022418 123.3733  42.2113 13.16117531633295

Śledź COSMOS 457 w czasie rzeczywistym z AllMySat

Download on the App Store